Regional Weather Roundup
Issued by NWS

Home | Current Version | Previous Version | Text Only | Print | Product List | Glossary On
Versions: 1 2 3 4 5 6 7 8 9 10 11 12 13 14 15 16 17 18 19 20 21 22 23 24 25 26 27 28 29 30 31 32 33 34 35 36 37 38 39 40 41 42 43 44 45 46 47 48 49 50
000
ASUS43 KFSD 041602
RWRSD

WEATHER ROUNDUP FOR SOUTH DAKOTA
NATIONAL WEATHER SERVICE SIOUX FALLS SD
1100 AM CDT WED MAY 04 2016

NOTE: "FAIR" INDICATES FEW OR NO CLOUDS BELOW 12,000 FEET WITH NO
SIGNIFICANT WEATHER AND/OR OBSTRUCTIONS TO VISIBILITY.


SDZ001>005-009-010-012>017-041700-
NORTHWEST AND NORTH CENTRAL SOUTH DAKOTA

CITY           SKY/WX    TMP DP  RH WIND       PRES   REMARKS
BUFFALO          N/A     72  40  31 S10       30.05F
FAITH            N/A     64  41  42 SW10      30.11F
MOBRIDGE       SUNNY     61  39  44 VRB6      30.10F
$$

SDZ012>016-024>037-041>051-057-063-072>074-041700-
SOUTHWEST AND SOUTH CENTRAL SOUTH DAKOTA

CITY           SKY/WX    TMP DP  RH WIND       PRES   REMARKS
RAPID CTY ARPT SUNNY     69  45  41 VRB5      30.14F
PIERRE         SUNNY     59  35  40 CALM      30.12F
CUSTER         SUNNY     62  33  33 CALM      30.23F
ELLSWORTH AFB  SUNNY     70  40  34 SW7       30.14F
PHILIP         SUNNY     65  43  44 W5        30.13F
PINE RIDGE     SUNNY     65  43  44 W5        30.17F
WINNER         FAIR      61  37  41 N6        30.14F
$$

SDZ004>011-016>023-039-040-041700-
NORTHEAST SOUTH DAKOTA

CITY           SKY/WX    TMP DP  RH WIND       PRES   REMARKS
ABERDEEN       SUNNY     60  36  40 N9G20     30.12F
WATERTOWN      SUNNY     60  37  42 NW12      30.08F
BROOKINGS      SUNNY     58  35  42 N15       30.07F
SISSETON         N/A     59  37  44 N14       30.08F
$$

SDZ017-020-022-023-036>040-048>070-041700-
SOUTHEAST SOUTH DAKOTA

CITY           SKY/WX    TMP DP  RH WIND       PRES   REMARKS
SIOUX FALLS    SUNNY     59  38  45 N10       30.08F
HURON          SUNNY     58  38  47 NW12      30.11F
MITCHELL       SUNNY     58  40  51 NW8       30.12F
YANKTON        SUNNY     55  39  54 W8        30.10S
$$

ABBREVIATIONS USED IN REMARKS
   TC - TEMPERATURE IN CELSIUS
  WCI - WIND CHILL INDEX
   HX - HEAT INDEX
  VSB - VISIBILITY




USA.gov is the U.S. government's official web portal to all federal, state and local government web resources and services.